SCP
-0 -0 -0 -0 -0 -0 -0 -0 -0 -0 -0 0 0 0 0 0 0 -0 -0 -0 -0 -0 -0 -0 -0 0 0 0 0 0 0 0 0 0 0 0 0 0 0 0 0 0 0 0 0 0 0
0 -0 -0 -0 -0 -0 -0 -0 0 0 -0 -0 -0 -0 -0 0 0 -0 -0 -0 -0 -0 -0 -0 -0 -0 -0 0 0 0 0 0 0 0 0 0 0 0 0 0 0 0 0 0 0 0 0
0 0 0 0 0 0 0 0 -0 -0 -0 -0 -0 -0 -0 -0 -0 -0 0 -0 -0 -0 -0 -0 -0 0 0 0 0 0 0 0 0 0 0 0 0 0 0 0 0 0 0 0 0 0 0
-0 0 0 0 0 -0 -0 0 0 0 0 0 0 0 0 0 0 -0 -0 -0 -0 -0 -0 -0 0 0 -0 0 0 0 0 0 0 0 0 0 0 0 0 0 0 0 0 0 0 0 0
0 0 -0 0 0 0 0 0 0 0 0 0 0 0 0 -0 -0 -0 -0 -0 -0 0 0 -0 -0 -0 -0 0 0 0 0 0 0 0 0 0 0 0 0 0 0 0 0 0 0 0 0
0 0 0 0 -0 -0 0 0 0 0 0 0 0 0 0 -0 -0 -0 -0 -0 -0 0 0 0 -0 -0 -0 -0 0 0 0 0 0 0 0 0 0 0 0 0 0 0 0 0 0 0 0
0 0 0 0 0 -0 -0 0 0 0 0 0 0 0 0 -0 -0 -0 0 0 0 0 0 -0 -0 -0 -0 0 0 0 0 0 0 0 0 0 0 0 0 0 0 0 0 0 0 0 0
0 0 0 0 0 0 -0 -0 0 0 0 0 0 0 0 -0 -0 -0 0 0 0 0 -0 -0 -0 0 0 0 0 0 0 -0 0 0 0 0 0 0 0 0 0 0 0 0 0 0 0
0 0 0 0 0 0 0 0 0 0 0 0 0 0 0 -0 -0 0 0 0 0 0 0 0 0 0 0 0 0 0 0 -0 0 0 0 0 0 0 0 0 0 0 0 0 0 0 0
0 0 0 0 0 0 -0 0 0 0 0 0 0 0 0 0 0 0 0 0 0 0 0 0 0 0 0 0 0 0 0 0 0 0 0 0 0 0 0 0 0 0 0 0 0 0 0
0 0 0 0 0 0 0 0 0 0 0 0 0 -0 -0 0 0 0 0 0 0 0 0 0 0 0 0 0 0 0 0 0 0 0 0 0 0 0 0 0 0 0 0 0 0 0 0
0 0 0 0 0 0 0 0 0 0 0 0 0 -0 -0 0 0 0 0 0 0 0 0 0 0 0 0 0 0 0 0 0 0 0 0 0 0 0 0 0 0 0 0 0 0 0 0
0 0 0 0 0 0 0 0 0 0 0 0 0 -0 0 0 0 0 0 0 0 0 0 0 0 0 0 0 0 0 0 0 0 0 0 0 0 0 0 0 0 0 0 0 0 0 0
0 0 0 0 0 0 0 0 0 0 0 0 0 0 0 0 0 0 0 0 0 0 0 0 0 0 0 0 0 0 0 0 0 0 0 0 0 0 0 0 0 0 0 0 0 0 0
0 0 0 0 0 0 0 0 0 0 0 0 0 0 0 0 0 0 0 0 0 0 0 0 0 0 0 0 0 0 0 0 -0 -0 0 0 0 -0 0 0 0 0 0 0 0 0 0
-0 -0 0 0 0 0 0 0 -0 0 0 0 0 0 0 0 0 0 0 0 0 0 0 0 0 0 0 0 0 0 0 0 0 -0 -0 -0 0 0 0 0 0 0 0 0 0 0 0
0 -0 -0 0 0 0 0 0 0 0 0 0 0 0 0 0 0 0 0 0 0 0 0 0 0 0 0 0 0 0 0 0 0 -0 -0 -0 0 0 0 0 0 0 0 0 0 0 0
0 -0 -0 0 0 0 0 0 0 0 0 0 0 0 0 0 0 0 0 0 0 0 0 0 0 0 0 0 0 0 0 0 0 0 -0 0 -0 0 0 0 0 0 0 0 0 0 0
0 0 -0 -0 0 0 0 0 0 0 0 0 0 0 0 0 0 0 0 0 0 0 0 0 0 0 0 0 0 0 0 0 0 0 0 -0 0 0 0 0 0 0 0 0 0 0 0
0 0 0 0 0 0 0 0 0 0 0 0 0 0 0 0 0 0 0 0 0 0 0 0 0 0 0 0 0 0 0 0 0 0 -0 0 0 0 0 0 0 0 0 0 0 0 0
0 0 0 0 0 0 0 0 0 0 0 0 0 0 0 0 0 0 0 0 0 0 0 0 0 0 0 0 0 0 0 0 0 -0 -0 -0 -0 0 0 0 0 0 0 0 0 0 0
0 0 0 0 0 0 0 0 0 0 0 0 0 0 0 0 0 0 0 0 0 0 0 0 0 0 0 0 0 -0 0 0 0 0 0 0 -0 -0 0 -0 0 0 0 0 0 0 -0
0 0 0 0 0 0 0 0 0 0 0 0 0 0 0 0 0 0 0 0 0 0 0 0 0 -0 0 0 0 0 -0 -0 -0 -0 -0 -0 -0 -0 -0 -0 -0 -0 -0 0 0 -0 -0
0 0 0 0 0 0 0 0 0 0 0 0 0 0 0 0 0 0 0 0 0 0 0 0 0 0 0 0 0 0 0 0 -0 -0 -0 0 -0 -0 0 -0 -0 0 0 0 0 0 0
0 0 0 0 0 0 0 0 0 0 0 0 0 0 0 0 0 0 0 0 0 0 0 0 0 0 0 0 0 0 0 0 0 -0 -0 -0 0 0 0 0 0 0 0 0 0 0 0
0 0 0 0 0 0 0 0 0 0 0 0 0 0 0 0 0 0 0 0 0 0 0 0 0 0 0 -0 0 0 -0 0 0 -0 0 0 0 0 0 0 0 0 0 0 0 0 0
0 0 0 0 0 0 0 0 0 0 0 0 0 0 0 0 0 0 0 0 0 0 0 0 0 0 0 -0 0 0 0 0 0 0 0 0 0 0 -0 0 0 0 0 0 0 0 0
0 0 0 0 0 0 0 0 0 0 0 0 0 0 0 0 0 0 0 0 0 0 0 0 0 0 0 0 -0 -0 0 0 0 0 0 0 0 0 0 0 0 0 -0 0 0 0 0
0 0 0 0 0 0 0 0 -0 0 0 0 0 0 0 0 0 0 0 0 -0 -0 -0 0 0 0 0 0 -0 0 0 0 0 0 0 -0 0 0 0 0 0 -0 0 -0 -0 0 0
Wind_Speed_500mb
36 36 36 36 36 35 35 35 37 38 36 36 37 39 40 41 40 38 35 34 36 39 40 41 39 34 29 25 37 28 28 44 43 36 26 18 45 24 16 13 20 29 8 33 64 40 41
36 38 38 39 40 39 39 39 40 39 39 39 40 41 43 42 39 37 29 28 33 35 35 37 38 33 23 10 31 47 47 40 40 36 23 20 18 45 15 15 36 8 31 38 30 29 20
35 35 35 36 37 38 40 42 42 41 40 40 41 42 42 38 33 28 25 27 34 39 35 26 28 28 32 35 37 29 28 31 35 35 44 29 30 23 10 5 39 16 11 8 14 13 15
34 33 34 35 36 38 40 42 44 45 46 46 45 44 45 42 36 26 28 30 33 20 21 35 34 17 21 29 45 34 47 45 45 46 33 36 21 38 21 9 3 8 9 30 29 15 14
36 36 36 37 38 40 42 44 47 48 49 48 47 47 47 42 39 33 36 39 43 31 32 44 21 16 18 38 40 48 46 42 45 42 27 21 26 23 11 7 7 8 29 22 17 18 18
35 36 37 39 41 42 44 48 50 51 50 49 47 46 45 40 37 34 37 43 41 19 21 30 12 12 19 40 45 46 37 24 23 39 18 17 17 7 7 12 31 17 20 5 11 12 28
38 38 40 41 41 43 46 49 52 53 53 50 45 41 39 34 29 31 37 46 31 10 39 20 33 32 46 44 46 43 38 24 11 5 6 10 7 26 32 27 21 8 4 2 0 7 7
41 41 41 42 43 44 45 49 53 54 52 49 42 37 31 26 20 25 24 18 18 21 25 18 25 35 34 31 25 49 33 8 11 7 6 8 23 12 7 13 16 12 2 6 10 18 10
43 43 44 46 47 48 49 50 53 55 53 48 42 36 25 21 17 23 13 22 26 26 8 26 27 24 22 39 24 35 19 5 2 5 9 14 11 7 13 10 10 9 15 6 12 15 24
46 48 49 49 50 53 53 51 52 55 54 50 45 38 25 13 14 33 8 28 29 12 5 11 16 11 38 50 5 61 17 13 9 12 6 10 13 11 12 10 14 9 12 4 3 5 11
46 48 50 52 54 55 56 53 52 56 54 50 47 36 26 16 21 28 30 37 14 4 8 20 10 23 63 9 32 18 49 18 17 12 5 18 11 4 9 11 14 23 21 19 12 12 6
46 48 50 53 56 58 59 57 56 57 57 54 49 38 20 10 17 28 35 33 6 10 9 12 18 23 25 21 24 23 28 20 9 7 11 33 8 11 14 12 8 2 9 7 5 6 14
47 48 49 52 56 61 62 62 61 60 58 55 48 26 8 3 15 30 38 6 8 8 9 12 16 21 31 11 17 11 18 14 6 9 7 6 15 14 10 9 1 7 9 3 2 5 21
47 48 51 53 56 61 64 66 66 64 62 55 35 15 11 7 15 27 33 8 8 7 10 12 19 33 9 13 15 15 14 11 9 7 5 7 9 11 11 18 13 12 16 8 12 10 10
46 49 52 54 57 60 64 66 67 65 64 58 29 9 10 11 16 26 18 8 12 7 9 14 25 6 7 11 6 12 7 5 9 9 9 6 8 30 6 9 21 9 8 13 5 3 1
45 49 53 55 57 61 63 65 66 66 62 59 31 9 10 12 19 24 9 5 5 8 14 14 7 5 9 12 11 11 7 4 9 7 11 8 8 5 26 2 9 14 13 7 3 8 9
45 50 55 57 59 61 62 62 65 67 61 55 22 2 14 12 19 6 5 8 9 15 9 7 9 9 10 10 8 8 11 10 1 7 7 7 5 4 3 4 6 6 2 3 7 9 8
48 51 56 57 58 60 62 61 61 66 66 56 16 4 12 19 7 4 1 8 14 10 15 8 8 9 8 7 10 9 10 5 2 4 10 5 3 7 8 10 6 9 7 2 9 10 14
50 52 55 56 59 61 60 58 56 57 60 56 23 8 11 11 4 6 10 9 10 7 8 6 8 6 7 6 11 11 14 10 21 3 3 6 4 7 13 5 5 2 5 9 3 3 10
48 50 52 52 53 58 59 56 54 49 48 39 16 8 8 12 7 5 9 8 12 22 11 10 10 9 5 9 17 12 18 17 12 3 30 8 7 9 7 0 3 9 10 6 7 7 13
51 52 51 51 49 50 55 56 57 48 39 27 16 4 5 8 6 10 7 8 15 14 7 16 8 11 20 17 29 30 10 11 20 41 12 6 10 8 16 24 23 25 29 27 24 20 16
56 54 52 50 49 49 49 54 56 52 36 14 13 10 8 14 25 9 8 6 15 15 11 17 10 33 30 22 29 42 31 13 12 12 7 4 8 11 16 24 29 32 30 32 37 32 39
56 53 54 50 48 50 49 48 51 43 38 12 20 10 6 10 9 5 7 9 17 28 20 26 31 29 28 29 37 60 64 63 35 16 8 5 4 1 8 5 13 18 35 40 37 37 22
50 51 52 51 53 49 45 46 44 33 32 25 24 18 4 7 5 7 16 35 31 18 19 42 45 16 26 69 69 38 24 29 29 29 29 13 8 6 8 7 10 7 6 26 42 46 31
48 49 54 53 52 46 44 45 42 30 25 24 24 14 5 8 13 24 14 11 34 32 19 26 48 45 49 29 10 11 5 4 2 12 20 30 17 7 7 11 16 25 6 10 10 9 16
54 57 55 55 56 51 46 44 41 28 22 25 25 23 14 10 9 17 27 28 11 8 8 16 40 32 25 7 6 8 5 9 7 11 8 17 30 10 7 7 7 3 16 27 20 9 14
59 61 61 61 61 61 55 45 38 25 25 23 28 29 21 14 31 20 14 12 16 12 8 16 24 13 22 8 8 7 6 6 8 13 12 9 5 15 19 9 9 9 28 32 10 1 9
61 63 64 63 62 56 46 35 33 27 26 22 31 31 33 19 51 51 29 29 29 25 6 14 19 5 7 11 7 6 5 6 7 7 13 8 11 4 6 5 6 30 28 9 16 8 14
69 65 65 58 46 40 39 40 33 30 22 21 35 29 28 44 55 77 84 71 78 66 35 9 6 8 5 3 3 4 5 4 6 6 7 6 1 8 5 5 14 31 25 46 48 21 19
Wind_Direction_500mb
30 28 27 21 18 15 11 9 6 2 0 358 354 351 350 347 344 343 344 343 337 334 332 329 327 322 327 315 286 323 283 275 282 289 279 260 216 210 190 196 212 233 201 227 245 251 256
29 28 25 21 16 11 7 5 4 1 359 354 352 350 349 347 348 347 351 348 337 327 326 327 328 328 337 279 325 312 298 284 284 286 258 253 220 220 274 215 200 147 227 240 257 255 252
24 21 18 15 14 9 7 2 0 0 360 358 354 351 349 348 351 348 348 350 337 328 324 342 349 335 308 299 339 357 16 11 343 307 266 236 229 226 266 290 238 250 273 284 230 229 251
17 13 11 11 9 7 6 4 2 360 357 357 355 352 350 349 352 350 347 358 346 347 352 345 336 318 273 348 344 342 329 319 344 339 272 239 223 241 233 271 300 185 161 243 242 180 228
14 9 6 5 4 5 6 6 2 358 356 355 355 353 352 349 348 351 344 345 344 318 325 333 333 315 299 340 340 339 326 315 317 327 304 227 229 217 181 182 360 247 233 217 246 210 189
10 6 3 4 4 6 6 4 0 358 355 354 353 353 353 349 346 347 339 336 335 309 296 325 301 314 309 327 335 342 342 323 309 318 303 247 230 193 152 165 213 211 224 235 197 202 198
12 10 8 6 7 6 4 3 2 359 355 353 351 351 353 349 345 347 340 343 15 341 324 281 274 278 289 323 326 339 336 288 275 344 218 235 194 217 220 230 261 47 100 65 18 252 245
13 11 10 7 3 1 359 359 360 359 356 353 350 349 352 349 334 358 3 46 16 327 302 310 305 280 320 322 305 330 332 236 145 199 302 328 243 237 208 195 246 269 237 219 273 258 224
15 11 11 6 1 357 354 354 356 356 354 352 348 342 346 352 346 337 359 12 343 331 275 294 315 303 335 341 309 319 319 293 186 197 215 212 261 204 215 195 204 199 230 208 218 301 286
15 12 10 9 5 360 356 354 353 353 350 348 349 335 335 336 349 347 11 345 329 299 42 284 334 345 335 340 309 332 343 256 215 218 225 221 255 229 208 236 215 201 170 184 327 189 256
12 11 9 7 5 2 360 356 353 353 348 345 344 334 328 311 336 345 338 339 332 129 348 322 319 325 336 322 310 325 330 242 244 227 191 234 188 239 210 209 188 238 227 244 226 250 284
8 7 7 6 3 1 2 360 355 354 348 344 341 326 330 301 338 343 337 337 127 48 267 332 332 331 349 311 319 309 332 299 267 242 270 244 247 178 206 237 196 199 169 144 130 126 243
6 5 5 5 2 360 0 360 356 355 351 345 345 333 359 12 343 347 339 350 37 114 327 330 315 327 325 277 312 317 327 308 255 311 229 281 230 228 183 216 214 174 74 97 145 183 233
3 3 2 3 2 359 358 357 356 356 353 349 356 22 54 33 341 345 342 54 71 253 267 302 308 312 282 346 318 320 317 332 310 298 330 313 268 184 187 187 186 185 160 174 184 177 238
360 359 358 357 356 357 357 355 354 356 356 350 355 69 60 14 349 345 343 53 198 231 300 308 314 286 292 338 292 335 292 261 352 56 341 289 323 330 274 169 158 198 165 207 34 267 143
358 359 359 355 354 353 355 356 353 356 357 353 354 118 40 5 350 341 65 262 238 229 296 296 268 254 299 318 326 331 294 287 328 46 162 275 271 201 304 15 172 159 170 107 355 207 241
355 354 354 355 356 355 355 355 354 355 358 357 356 96 0 328 334 358 122 241 289 306 6 298 270 283 276 310 288 282 271 294 345 313 317 290 302 267 186 269 139 336 308 153 153 175 220
349 348 350 350 351 352 352 355 355 355 355 360 3 51 16 340 23 50 103 306 298 308 325 281 264 256 270 316 294 281 259 234 106 6 315 300 297 283 272 290 30 168 243 253 204 251 252
340 340 342 348 348 348 349 350 357 358 358 353 349 320 349 8 72 322 308 286 267 286 288 306 295 295 354 318 291 258 270 289 302 319 270 333 326 314 321 19 50 228 232 220 159 71 218
335 336 337 342 344 346 349 349 352 359 358 356 351 1 349 49 66 58 320 302 307 317 271 261 250 262 308 267 266 281 277 304 319 224 293 273 228 229 223 355 42 302 299 302 187 226 245
330 332 332 336 337 340 348 348 346 354 1 4 8 18 2 308 326 307 234 278 304 322 273 298 300 238 309 296 303 272 260 292 301 305 284 232 252 217 257 271 277 268 263 263 251 240 237
328 327 327 329 331 332 338 344 346 345 5 8 7 359 332 292 294 269 279 257 290 325 310 302 259 308 308 289 283 285 287 269 249 288 237 153 253 214 253 256 248 254 251 250 253 247 256
328 328 327 327 328 331 331 334 343 350 358 4 351 321 286 268 302 331 249 280 314 314 285 282 287 302 299 291 287 282 272 267 249 252 250 239 238 274 258 16 333 274 243 232 244 241 237
330 331 331 332 330 329 329 332 338 348 340 343 343 340 290 275 265 239 297 296 293 309 286 293 296 273 287 308 303 293 259 257 245 241 232 237 211 213 264 11 252 241 16 296 240 247 219
327 329 328 326 325 329 327 325 332 333 327 318 317 310 249 279 253 292 300 279 303 293 279 274 292 305 312 314 336 336 17 333 225 215 229 219 214 228 234 208 290 302 33 333 334 287 222
324 324 324 324 320 317 315 312 322 318 307 306 302 282 250 279 249 280 302 287 280 295 286 274 316 323 350 26 346 10 334 316 321 314 246 227 225 222 191 241 261 32 340 317 302 245 52
325 323 323 321 320 320 319 321 324 312 305 290 292 283 257 257 280 283 281 285 298 281 278 303 338 330 8 7 7 351 318 339 330 318 327 311 313 218 248 253 265 7 317 306 241 87 3
326 324 322 320 320 324 326 326 320 312 303 284 290 285 270 255 284 278 264 258 274 247 244 317 334 334 350 26 354 338 304 330 296 275 312 317 317 346 293 266 328 346 328 327 343 292 339
327 323 324 331 332 328 326 322 318 313 313 286 286 296 293 257 269 289 291 280 260 250 269 267 255 288 258 308 267 277 311 283 299 297 317 328 212 301 249 266 264 301 262 299 293 321 327
Wind_Speed_850mb
36 36 36 36 36 35 35 35 37 38 36 36 37 39 40 41 40 38 35 34 36 39 40 41 39 34 29 25 37 28 28 44 43 36 26 18 45 24 16 13 20 29 8 33 64 40 41
36 38 38 39 40 39 39 39 40 39 39 39 40 41 43 42 39 37 29 28 33 35 35 37 38 33 23 10 31 47 47 40 40 36 23 20 18 45 15 15 36 8 31 38 30 29 20
35 35 35 36 37 38 40 42 42 41 40 40 41 42 42 38 33 28 25 27 34 39 35 26 28 28 32 35 37 29 28 31 35 35 44 29 30 23 10 5 39 16 11 8 14 13 15
34 33 34 35 36 38 40 42 44 45 46 46 45 44 45 42 36 26 28 30 33 20 21 35 34 17 21 29 45 34 47 45 45 46 33 36 21 38 21 9 3 8 9 30 29 15 14
36 36 36 37 38 40 42 44 47 48 49 48 47 47 47 42 39 33 36 39 43 31 32 44 21 16 18 38 40 48 46 42 45 42 27 21 26 23 11 7 7 8 29 22 17 18 18
35 36 37 39 41 42 44 48 50 51 50 49 47 46 45 40 37 34 37 43 41 19 21 30 12 12 19 40 45 46 37 24 23 39 18 17 17 7 7 12 31 17 20 5 11 12 28
38 38 40 41 41 43 46 49 52 53 53 50 45 41 39 34 29 31 37 46 31 10 39 20 33 32 46 44 46 43 38 24 11 5 6 10 7 26 32 27 21 8 4 2 0 7 7
41 41 41 42 43 44 45 49 53 54 52 49 42 37 31 26 20 25 24 18 18 21 25 18 25 35 34 31 25 49 33 8 11 7 6 8 23 12 7 13 16 12 2 6 10 18 10
43 43 44 46 47 48 49 50 53 55 53 48 42 36 25 21 17 23 13 22 26 26 8 26 27 24 22 39 24 35 19 5 2 5 9 14 11 7 13 10 10 9 15 6 12 15 24
46 48 49 49 50 53 53 51 52 55 54 50 45 38 25 13 14 33 8 28 29 12 5 11 16 11 38 50 5 61 17 13 9 12 6 10 13 11 12 10 14 9 12 4 3 5 11
46 48 50 52 54 55 56 53 52 56 54 50 47 36 26 16 21 28 30 37 14 4 8 20 10 23 63 9 32 18 49 18 17 12 5 18 11 4 9 11 14 23 21 19 12 12 6
46 48 50 53 56 58 59 57 56 57 57 54 49 38 20 10 17 28 35 33 6 10 9 12 18 23 25 21 24 23 28 20 9 7 11 33 8 11 14 12 8 2 9 7 5 6 14
47 48 49 52 56 61 62 62 61 60 58 55 48 26 8 3 15 30 38 6 8 8 9 12 16 21 31 11 17 11 18 14 6 9 7 6 15 14 10 9 1 7 9 3 2 5 21
47 48 51 53 56 61 64 66 66 64 62 55 35 15 11 7 15 27 33 8 8 7 10 12 19 33 9 13 15 15 14 11 9 7 5 7 9 11 11 18 13 12 16 8 12 10 10
46 49 52 54 57 60 64 66 67 65 64 58 29 9 10 11 16 26 18 8 12 7 9 14 25 6 7 11 6 12 7 5 9 9 9 6 8 30 6 9 21 9 8 13 5 3 1
45 49 53 55 57 61 63 65 66 66 62 59 31 9 10 12 19 24 9 5 5 8 14 14 7 5 9 12 11 11 7 4 9 7 11 8 8 5 26 2 9 14 13 7 3 8 9
45 50 55 57 59 61 62 62 65 67 61 55 22 2 14 12 19 6 5 8 9 15 9 7 9 9 10 10 8 8 11 10 1 7 7 7 5 4 3 4 6 6 2 3 7 9 8
48 51 56 57 58 60 62 61 61 66 66 56 16 4 12 19 7 4 1 8 14 10 15 8 8 9 8 7 10 9 10 5 2 4 10 5 3 7 8 10 6 9 7 2 9 10 14
50 52 55 56 59 61 60 58 56 57 60 56 23 8 11 11 4 6 10 9 10 7 8 6 8 6 7 6 11 11 14 10 21 3 3 6 4 7 13 5 5 2 5 9 3 3 10
48 50 52 52 53 58 59 56 54 49 48 39 16 8 8 12 7 5 9 8 12 22 11 10 10 9 5 9 17 12 18 17 12 3 30 8 7 9 7 0 3 9 10 6 7 7 13
51 52 51 51 49 50 55 56 57 48 39 27 16 4 5 8 6 10 7 8 15 14 7 16 8 11 20 17 29 30 10 11 20 41 12 6 10 8 16 24 23 25 29 27 24 20 16
56 54 52 50 49 49 49 54 56 52 36 14 13 10 8 14 25 9 8 6 15 15 11 17 10 33 30 22 29 42 31 13 12 12 7 4 8 11 16 24 29 32 30 32 37 32 39
56 53 54 50 48 50 49 48 51 43 38 12 20 10 6 10 9 5 7 9 17 28 20 26 31 29 28 29 37 60 64 63 35 16 8 5 4 1 8 5 13 18 35 40 37 37 22
50 51 52 51 53 49 45 46 44 33 32 25 24 18 4 7 5 7 16 35 31 18 19 42 45 16 26 69 69 38 24 29 29 29 29 13 8 6 8 7 10 7 6 26 42 46 31
48 49 54 53 52 46 44 45 42 30 25 24 24 14 5 8 13 24 14 11 34 32 19 26 48 45 49 29 10 11 5 4 2 12 20 30 17 7 7 11 16 25 6 10 10 9 16
54 57 55 55 56 51 46 44 41 28 22 25 25 23 14 10 9 17 27 28 11 8 8 16 40 32 25 7 6 8 5 9 7 11 8 17 30 10 7 7 7 3 16 27 20 9 14
59 61 61 61 61 61 55 45 38 25 25 23 28 29 21 14 31 20 14 12 16 12 8 16 24 13 22 8 8 7 6 6 8 13 12 9 5 15 19 9 9 9 28 32 10 1 9
61 63 64 63 62 56 46 35 33 27 26 22 31 31 33 19 51 51 29 29 29 25 6 14 19 5 7 11 7 6 5 6 7 7 13 8 11 4 6 5 6 30 28 9 16 8 14
69 65 65 58 46 40 39 40 33 30 22 21 35 29 28 44 55 77 84 71 78 66 35 9 6 8 5 3 3 4 5 4 6 6 7 6 1 8 5 5 14 31 25 46 48 21 19
Wind_Direction_850mb
30 28 27 21 18 15 11 9 6 2 0 358 354 351 350 347 344 343 344 343 337 334 332 329 327 322 327 315 286 323 283 275 282 289 279 260 216 210 190 196 212 233 201 227 245 251 256
29 28 25 21 16 11 7 5 4 1 359 354 352 350 349 347 348 347 351 348 337 327 326 327 328 328 337 279 325 312 298 284 284 286 258 253 220 220 274 215 200 147 227 240 257 255 252
24 21 18 15 14 9 7 2 0 0 360 358 354 351 349 348 351 348 348 350 337 328 324 342 349 335 308 299 339 357 16 11 343 307 266 236 229 226 266 290 238 250 273 284 230 229 251
17 13 11 11 9 7 6 4 2 360 357 357 355 352 350 349 352 350 347 358 346 347 352 345 336 318 273 348 344 342 329 319 344 339 272 239 223 241 233 271 300 185 161 243 242 180 228
14 9 6 5 4 5 6 6 2 358 356 355 355 353 352 349 348 351 344 345 344 318 325 333 333 315 299 340 340 339 326 315 317 327 304 227 229 217 181 182 360 247 233 217 246 210 189
10 6 3 4 4 6 6 4 0 358 355 354 353 353 353 349 346 347 339 336 335 309 296 325 301 314 309 327 335 342 342 323 309 318 303 247 230 193 152 165 213 211 224 235 197 202 198
12 10 8 6 7 6 4 3 2 359 355 353 351 351 353 349 345 347 340 343 15 341 324 281 274 278 289 323 326 339 336 288 275 344 218 235 194 217 220 230 261 47 100 65 18 252 245
13 11 10 7 3 1 359 359 360 359 356 353 350 349 352 349 334 358 3 46 16 327 302 310 305 280 320 322 305 330 332 236 145 199 302 328 243 237 208 195 246 269 237 219 273 258 224
15 11 11 6 1 357 354 354 356 356 354 352 348 342 346 352 346 337 359 12 343 331 275 294 315 303 335 341 309 319 319 293 186 197 215 212 261 204 215 195 204 199 230 208 218 301 286
15 12 10 9 5 360 356 354 353 353 350 348 349 335 335 336 349 347 11 345 329 299 42 284 334 345 335 340 309 332 343 256 215 218 225 221 255 229 208 236 215 201 170 184 327 189 256
12 11 9 7 5 2 360 356 353 353 348 345 344 334 328 311 336 345 338 339 332 129 348 322 319 325 336 322 310 325 330 242 244 227 191 234 188 239 210 209 188 238 227 244 226 250 284
8 7 7 6 3 1 2 360 355 354 348 344 341 326 330 301 338 343 337 337 127 48 267 332 332 331 349 311 319 309 332 299 267 242 270 244 247 178 206 237 196 199 169 144 130 126 243
6 5 5 5 2 360 0 360 356 355 351 345 345 333 359 12 343 347 339 350 37 114 327 330 315 327 325 277 312 317 327 308 255 311 229 281 230 228 183 216 214 174 74 97 145 183 233
3 3 2 3 2 359 358 357 356 356 353 349 356 22 54 33 341 345 342 54 71 253 267 302 308 312 282 346 318 320 317 332 310 298 330 313 268 184 187 187 186 185 160 174 184 177 238
360 359 358 357 356 357 357 355 354 356 356 350 355 69 60 14 349 345 343 53 198 231 300 308 314 286 292 338 292 335 292 261 352 56 341 289 323 330 274 169 158 198 165 207 34 267 143
358 359 359 355 354 353 355 356 353 356 357 353 354 118 40 5 350 341 65 262 238 229 296 296 268 254 299 318 326 331 294 287 328 46 162 275 271 201 304 15 172 159 170 107 355 207 241
355 354 354 355 356 355 355 355 354 355 358 357 356 96 0 328 334 358 122 241 289 306 6 298 270 283 276 310 288 282 271 294 345 313 317 290 302 267 186 269 139 336 308 153 153 175 220
349 348 350 350 351 352 352 355 355 355 355 360 3 51 16 340 23 50 103 306 298 308 325 281 264 256 270 316 294 281 259 234 106 6 315 300 297 283 272 290 30 168 243 253 204 251 252
340 340 342 348 348 348 349 350 357 358 358 353 349 320 349 8 72 322 308 286 267 286 288 306 295 295 354 318 291 258 270 289 302 319 270 333 326 314 321 19 50 228 232 220 159 71 218
335 336 337 342 344 346 349 349 352 359 358 356 351 1 349 49 66 58 320 302 307 317 271 261 250 262 308 267 266 281 277 304 319 224 293 273 228 229 223 355 42 302 299 302 187 226 245
330 332 332 336 337 340 348 348 346 354 1 4 8 18 2 308 326 307 234 278 304 322 273 298 300 238 309 296 303 272 260 292 301 305 284 232 252 217 257 271 277 268 263 263 251 240 237
328 327 327 329 331 332 338 344 346 345 5 8 7 359 332 292 294 269 279 257 290 325 310 302 259 308 308 289 283 285 287 269 249 288 237 153 253 214 253 256 248 254 251 250 253 247 256
328 328 327 327 328 331 331 334 343 350 358 4 351 321 286 268 302 331 249 280 314 314 285 282 287 302 299 291 287 282 272 267 249 252 250 239 238 274 258 16 333 274 243 232 244 241 237
330 331 331 332 330 329 329 332 338 348 340 343 343 340 290 275 265 239 297 296 293 309 286 293 296 273 287 308 303 293 259 257 245 241 232 237 211 213 264 11 252 241 16 296 240 247 219
327 329 328 326 325 329 327 325 332 333 327 318 317 310 249 279 253 292 300 279 303 293 279 274 292 305 312 314 336 336 17 333 225 215 229 219 214 228 234 208 290 302 33 333 334 287 222
324 324 324 324 320 317 315 312 322 318 307 306 302 282 250 279 249 280 302 287 280 295 286 274 316 323 350 26 346 10 334 316 321 314 246 227 225 222 191 241 261 32 340 317 302 245 52
325 323 323 321 320 320 319 321 324 312 305 290 292 283 257 257 280 283 281 285 298 281 278 303 338 330 8 7 7 351 318 339 330 318 327 311 313 218 248 253 265 7 317 306 241 87 3
326 324 322 320 320 324 326 326 320 312 303 284 290 285 270 255 284 278 264 258 274 247 244 317 334 334 350 26 354 338 304 330 296 275 312 317 317 346 293 266 328 346 328 327 343 292 339
327 323 324 331 332 328 326 322 318 313 313 286 286 296 293 257 269 289 291 280 260 250 269 267 255 288 258 308 267 277 311 283 299 297 317 328 212 301 249 266 264 301 262 299 293 321 327